ISS DEB (44303 NORAD) Tracking and Keplerian Element Data

This shows tracking and keplerian element data for the satellite.

Feedback or suggestion? Click here.




ElementValue
Catalog44303
NameISS DEB
Epoch Orbit13123
Epoch Day262.10239116
Epoch Year2021
RAAN201.6789
Inclination51.6376
Eccentricity0.0003648
Argument of Perigee227.0104
Mean Anonmoly133.0584
Mean Motion15.61335077
Decay Rate0.00013153
L11 44303U 98067QA 21262.10239116 .00013153 00000-0 15738-3 0 9990
L22 44303 51.6376 201.6789 0003648 227.0104 133.0584 15.61335077131236

Live tracking and technical data element details for ISS DEB (NORAD 44303). ISS DEB can be tracked NOW for your location showing map with azimuth and elevation plus other details from your city location.

Track the satellite on the map from your city or location and see movement details for azimuth, elevation, latitude, longitude, range, height, and movement on the map or in text.







IsCatalogInMostPopularTable: catalog: 44303, numindb: 25125
Update: records affected: 1



GetName: 44303 ISS DEB

Hit Count: updated at: Sat, 25 Sep 2021 23:28:46 GMT